Location: *
(60.1759°S, 155.0663°W)
Time: 08:11:13
(UTC+00:00)

Resurs 1-4 Rocket - Pass Details

Date: 17 September 2019
Orbit: 800 x 814 km, 98.6° (Epoch: 12 October)

Event Time Altitude Azimuth Distance (km) Brightness Sun altitude
Exits shadow 12:24:26 20° 239° (WSW) 1,849 3.9 -27.0°
Drops below altitude 10° 12:26:53 10° 215° (SW) 2,447 4.8 -26.8°
Sets 12:29:44 0° 200° (SSW) 3,386 5.7 -26.6°
